Content
SEND FEEDBACK

Daily
Averages
Monthly
Summary
United Kingdom

BASSINGSTOKE, ENGLAND


Home > Europe > United Kingdom > England
Elevation: 398 feet     Latitude: 51 22N     Longitude: 001 16W

WEATHER
 
SELECT A DAY
Number of Records: 65,341;   Date Range: 8/10/96 - 12/16/14
 
SHARE

PRINT THIS DATA

[ ← Previous Day ]
WEATHER ALMANAC - OCTOBER 18, 2013
[ Next Day → ]
[ °C ]   °F
Weather ElementAverageHighLow
Temperature54.9 °F60.8 °F (12:50 pm) (8:50 am)
Dewpoint52.1 °F55.4 °F (9:50 am) (7:00 pm)
Humidity89.9 %100 % (3:50 am)69 % (3:50 pm)
Barometer29.92 in30.01 in (12:50 am)29.74 in (11:50 pm)
Wind Speed9.3 mph15 mph (2:50 pm)
Weather ElementAverage
Visibility5.7 mi
Wind DirectionSE (133.6 °)

Weather ElementTotal
Precipitation---
Heating Degree Days34.6 (Base 65)
Averaged from 36 records on October 18, 2013
WEATHER CONDITIONS BREAKOUT
WIND DIRECTION BREAKOUT
WEATHER BY HOUR - OCTOBER 18, 2013
[ °C ]   °F
Local TimeTemperatureDewpointHumidityBarometerVisibilityWind DirectionWind SpeedGust SpeedPrecipitationEventsConditions
12:50 AM55.4 °F53.6 °F94 %30.01 in6.2 miSSW (210°)6.9 mphOvercast
1:50 AM55.4 °F53.6 °F94 %30.01 in6.2 miSW (230°)5.8 mphOvercast
2:50 AM55.4 °F53.6 °F94 %30.01 in6.2 miSSW (200°)1.2 mphOvercast
3:50 AM54.0 °F53.0 °F95 %30.01 in9.0 miSSE (160°)3.5 mphMostly Cloudy
3:50 AM53.6 °F53.6 °F100 %30.01 in6.2 miSSE (160°)3.5 mphMostly Cloudy
4:50 AM53.6 °F53.6 °F100 %29.98 in6.2 miSE (130°)5.8 mphMostly Cloudy
5:50 AM53.6 °F53.6 °F100 %29.98 in5.0 miESE (120°)8.1 mphScattered Clouds
6:14 AM53.6 °F53.6 °F100 %29.98 in4.3 miSouth (180°)3.5 mphOvercast
6:50 AM53.6 °F53.6 °F100 %29.98 in4.3 miSSE (150°)5.8 mphScattered Clouds
6:50 AM53.0 °F53.0 °F99 %29.99 in4.0 miSSE (150°)5.8 mphMist
7:32 AM53.6 °F53.6 °F100 %29.98 in0.7 miSE (130°)8.1 mphMostly Cloudy
7:50 AM53.6 °F53.6 °F100 %29.98 in0.2 miESE (110°)8.1 mphFogFog
8:50 AM0.0 °F0.0 °F29.98 in0.5 miENE (70°)3.5 mphFogFog
9:10 AM53.6 °F53.6 °F100 %29.98 in2.5 miEast (100°)4.6 mphOvercast
9:50 AM55.0 °F54.0 °F98 %29.98 in2.0 miESE (120°)9.2 mphFogLight Fog
9:50 AM55.4 °F55.4 °F100 %29.98 in2.5 miESE (120°)9.2 mphMostly Cloudy
10:14 AM57.2 °F55.4 °F94 %29.98 in3.1 miSE (130°)9.2 mphMostly Cloudy
10:50 AM57.2 °F55.4 °F94 %29.98 in3.7 miESE (120°)9.2 mphHaze
11:50 AM57.2 °F55.4 °F94 %29.95 in5.6 miEast (100°)9.2 mphHaze
12:50 PM60.0 °F55.0 °F79 %29.94 in9.0 miESE (120°)11.5 mphPartly Cloudy
12:50 PM60.8 °F55.4 °F82 %29.92 in6.2 miESE (120°)11.5 mphMostly Cloudy
1:50 PM60.8 °F55.4 °F82 %29.92 in6.2 miSE (140°)11.5 mphMostly Cloudy
2:50 PM60.8 °F53.6 °F77 %29.89 in6.2 miSE (140°)15.0 mphScattered Clouds
3:24 PM60.8 °F51.8 °F72 %29.89 in6.2 miSE (140°)15.0 mphMostly Cloudy
3:50 PM60.0 °F52.0 °F69 %29.89 in16.0 miSE (130°)12.7 mphMostly Cloudy
3:50 PM60.8 °F51.8 °F72 %29.89 in6.2 miSE (130°)12.7 mphMostly Cloudy
4:50 PM59.0 °F53.6 °F82 %29.86 in6.2 miESE (120°)11.5 mphOvercast
5:50 PM57.2 °F53.6 °F88 %29.83 in6.2 miEast (100°)12.7 mphOvercast
6:50 PM57.0 °F53.0 °F84 %29.83 in9.0 miESE (110°)12.7 mphOvercast
6:50 PM57.2 °F53.6 °F88 %29.83 in6.2 miESE (110°)12.7 mphOvercast
7:50 PM57.2 °F51.8 °F82 %29.83 in6.2 miSE (130°)15.0 mphMostly Cloudy
8:50 PM55.4 °F51.8 °F88 %29.80 in6.2 miESE (120°)11.5 mphMostly Cloudy
9:50 PM56.0 °F52.0 °F83 %29.79 in11.0 miESE (120°)11.5 mphOvercast
9:50 PM57.2 °F51.8 °F82 %29.77 in6.2 miESE (120°)11.5 mphMostly Cloudy
10:50 PM57.2 °F53.6 °F88 %29.77 in6.2 miSE (130°)13.8 mphMostly Cloudy
11:50 PM55.4 °F53.6 °F94 %29.74 in6.2 miSE (140°)11.5 mphRainLight Rain
Hourly data recorded from EGVO, located miles away from Bassingstoke, England







STORIES FROM OUR PARTNERS